Location: Göttingen
(51.5413°N, 9.9158°E)
Time: 04:45:21
(UTC+02:00)

Envisat - Pass Details

Date: 30 January 2022
Orbit: 764 x 765 km, 98.2° (Epoch: 28 May)

Event Time Altitude Azimuth Distance (km) Brightness Sun altitude
Rises 04:28:44 0° 21° (NNE) 3,243 6.7 -33.0°
Reaches altitude 10° 04:31:19 10° 32° (NNE) 2,312 6.0 -32.6°
Maximum altitude 04:35:49 31° 94° (E) 1,333 4.7 -31.9°
Drops below altitude 10° 04:40:16 10° 156° (SSE) 2,297 5.6 -31.3°
Sets 04:42:49 0° 166° (SSE) 3,219 6.3 -30.9°
